Regional Weather Roundup
Issued by NWS Green Bay, WI

Home | Current Version | Previous Version | Text Only | Print | Product List | Glossary On
Versions: 1 2 3 4 5 6 7 8 9 10 11 12 13 14 15 16 17 18 19 20 21 22 23 24 25 26 27 28 29 30 31 32 33 34 35 36 37 38 39 40 41 42 43 44 45 46 47 48 49 50
000
ASUS43 KGRB 251601
RWRGRB

NORTH-CENTRAL AND NORTHEAST WISCONSIN REGIONAL WEATHER ROUNDUP
NATIONAL WEATHER SERVICE GREEN BAY WI
1100 AM CDT SUN JUN 25 2017

WIZ005-009-010>012-018-019-251700-
NORTH CENTRAL WISCONSIN

CITY           SKY/WX    TMP DP  RH WIND       PRES   REMARKS
IRONWOOD       CLOUDY    56  52  86 VRB3      30.04R
MANITOWISH WTR NOT AVBL
ARBOR VITAE    NOT AVBL
EAGLE RIVER    NOT AVBL
LAND O LAKES   PTSUNNY   58  50  74 NW5       30.04S
RHINELANDER    CLOUDY    58  52  80 W7        30.04R
PHILLIPS       NOT AVBL
ANTIGO         NOT AVBL
TOMAHAWK       NOT AVBL
MERRILL        CLOUDY    56  51  83 NW10      30.05S
$$

WIZ013-073-251700-
NORTHEAST WISCONSIN

CITY           SKY/WX    TMP DP  RH WIND       PRES   REMARKS
IRON MOUNTAIN  CLOUDY    60  50  69 W10       29.99S
MARINETTE      PTSUNNY   64  53  67 NW8       30.00R
$$

WIZ017-030-035>037-045-251700-
CENTRAL WISCONSIN

CITY           SKY/WX    TMP DP  RH WIND       PRES   REMARKS
MEDFORD        NOT AVBL
WAUSAU         CLOUDY    58  50  75 NW9       30.04S
MOSINEE        CLOUDY    57  52  82 W13       30.07S
MARSHFIELD     CLOUDY    57  49  74 W12       30.07S
WISC RAPIDS    CLOUDY    57  50  77 NW10      30.10R
STEVENS POINT  NOT AVBL
WAUPACA        MOSUNNY   64  53  67 W14G21    30.05R
SHAWANO        NOT AVBL
CLINTONVILLE   NOT AVBL
WAUTOMA        CLOUDY    60  50  69 W13G23    30.08R
$$

WIZ038-039-048-051-251700-
FOX VALLEY

CITY           SKY/WX    TMP DP  RH WIND       PRES   REMARKS
NWS GREEN BAY  CLOUDY    66  53  63 NW10      30.02R
APPLETON       PTSUNNY   63  48  59 W14       30.02S
OSHKOSH        MOSUNNY   64  51  62 W16       30.03S
FOND DU LAC    MOSUNNY   65  50  58 W15G21    30.04S
$$

WIZ022-050-052-251700-
EAST CENTRAL WISCONSIN

CITY           SKY/WX    TMP DP  RH WIND       PRES   REMARKS
EPHRAIM        NOT AVBL
WASHINGTON ISL NOT AVBL
STURGEON BAY     N/A     61  52  72 W10         N/A
MANITOWOC      NOT AVBL
SHEBOYGAN      PTSUNNY   65  53  65 NW15G22   30.02R
$$

LMZ563-521-522-541>543-251700-
LAKESHORE

STATION/POSITION TIME  TEMP    WIND        PRES    VSBY  WAVE
                       AIR SEA DIR/SP/G                  HT/PER
                 (UTC) (F)     (DEG/KT/KT) (MB)    (MI)  (FT/S)
SHEBOYGAN LKSHOR 1500   62     300/ 16/ 21 1016.0R
KEWAUNEE LKSHORE 1530   60     300/  9/ 12 1015.4R
NORTHPORT PIER   1540   59     310/  7/ 12 1014.9S
N MID LAKE BUOY  1450   56 57  330/  6/  8 1015.3R         1/ 3
S GREEN BAY BUOY 1530   60     290/  8/ 10 1015.5F
CHAMBERS ISLAND  1540   61     280/  3/  7 1014.9S
MENOMINEE LKSHOR 1530          290/  8/ 12 1014.7R
$$




USA.gov is the U.S. government's official web portal to all federal, state and local government web resources and services.